Shokyu Maru — JG5288 — position and weather

sailwx.info

Track history (hours):
 
Tides and Currents Weather Stations Pressure Air Temp Water Temp Dewpoint Dewpoint Depression Visibility Wind Speed Wind Dir Waves Ship Positions

Shokyu Maru

Last reported at 2014-Oct-25 09:23 UTC. Time now 2014-Oct-25 10:21 UTC.
Position N 35°36' E 139°55'.

Length 91 m; draft 3.9 m.

Type: Tanker. MMSI: 431000253.

Date/timePositionNaut miles runAvg speedWind from/ knotsBaromVisibWave heightAir tempDewpointWater temp
2014-Oct-25 09:23N 35°36' E 139°55'4 5.0
2014-Oct-25 08:29N 35°33' E 139°59'3 3.5
2014-Oct-25 07:33N 35°31' E 140°03'0 0.0
2014-Oct-25 04:03N 35°31' E 140°03'0 0.1
2014-Oct-25 03:30N 35°31' E 140°03'7 7.2
2014-Oct-25 02:33N 35°34' E 139°55'5 0.9
2014-Oct-24 21:28N 35°38' E 139°59'3 3.7
2014-Oct-24 20:32N 35°36' E 139°55'0 0.0
2014-Oct-24 19:23N 35°36' E 139°55'0 0.0
2014-Oct-24 18:32N 35°36' E 139°55'0 0.0
2014-Oct-24 17:32N 35°36' E 139°55'0 0.0
2014-Oct-24 14:24N 35°36' E 139°55'7 8.6
2014-Oct-24 13:33N 35°31' E 139°49'3 2.6
2014-Oct-24 12:32N 35°32' E 139°46'0 0.0
2014-Oct-24 11:32N 35°32' E 139°46'0 0.0
2014-Oct-24 10:32N 35°32' E 139°46'0 0.0
2014-Oct-24 09:26N 35°32' E 139°46'0 0.0
2014-Oct-24 08:32N 35°32' E 139°46'5 4.8
2014-Oct-24 07:34N 35°27' E 139°44'5 4.6
2014-Oct-24 06:33N 35°29' E 139°49'0 0.0
2014-Oct-24 05:27N 35°29' E 139°49'0 0.0
2014-Oct-24 04:33N 35°29' E 139°49'0 0.0
2014-Oct-24 03:33N 35°29' E 139°49'6 6.1
2014-Oct-24 02:31N 35°34' E 139°54'5 1.1
2014-Oct-23 21:24N 35°38' E 139°58'4 3.1
2014-Oct-23 20:12N 35°35' E 139°55'0 0.0
2014-Oct-23 18:06N 35°35' E 139°55'0 0.0
2014-Oct-23 17:30N 35°35' E 139°55'0 0.0
2014-Oct-23 16:33N 35°35' E 139°55'0 0.0
2014-Oct-23 15:24N 35°35' E 139°55'5 1.1
2014-Oct-23 10:28N 35°32' E 139°60'1 0.2
2014-Oct-23 06:28N 35°31' E 139°59'4 3.7
2014-Oct-23 05:26N 35°34' E 139°55'1 1.3
2014-Oct-23 04:30N 35°35' E 139°55'4 0.8
2014-Oct-22 23:24N 35°38' E 139°59'4 2.1
2014-Oct-22 21:27N 35°35' E 139°54'0 0.0
2014-Oct-22 20:33N 35°35' E 139°54'0 0.0
2014-Oct-22 18:26N 35°35' E 139°54'0 0.0
2014-Oct-22 15:33N 35°35' E 139°54'0 0.0
2014-Oct-22 14:27N 35°35' E 139°54'0 0.0
2014-Oct-22 11:18N 35°35' E 139°54'1 1.0
2014-Oct-22 10:32N 35°35' E 139°54'7 7.5
2014-Oct-22 09:33N 35°31' E 139°46'0 0.1
2014-Oct-22 08:11N 35°31' E 139°46'0 0.0
2014-Oct-22 07:29N 35°31' E 139°46'0 0.0
2014-Oct-22 06:32N 35°31' E 139°46'0 0.0
2014-Oct-22 05:23N 35°31' E 139°46'1 1.4
2014-Oct-22 04:33N 35°30' E 139°45'3 3.0
2014-Oct-22 03:33N 35°28' E 139°47'1210.6
2014-Oct-22 02:28N 35°36' E 139°57'2 0.4
2014-Oct-21 21:29N 35°37' E 139°58'3 2.3
2014-Oct-21 20:09N 35°36' E 139°55'0 0.1
2014-Oct-21 19:30N 35°36' E 139°55'0 0.1
2014-Oct-21 18:33N 35°36' E 139°55'0 0.0
2014-Oct-21 16:21N 35°36' E 139°55'2 0.6
2014-Oct-21 12:33N 35°34' E 139°57'4 0.9
2014-Oct-21 08:29N 35°31' E 140°00'5 0.9
2014-Oct-21 02:32N 35°35' E 139°55'4 0.8
2014-Oct-20 21:23N 35°38' E 139°59'3 0.9
2014-Oct-20 17:33N 35°36' E 139°55'9 8.8
2014-Oct-20 16:33N 35°31' E 139°46'0 0.1
2014-Oct-20 15:33N 35°31' E 139°46'0 0.0
2014-Oct-20 14:33N 35°31' E 139°46'0 0.0
2014-Oct-20 13:33N 35°31' E 139°46'0 0.0
2014-Oct-20 12:33N 35°31' E 139°46'0 0.0
2014-Oct-20 11:33N 35°31' E 139°46'1 1.1
2014-Oct-20 10:33N 35°30' E 139°45'3 3.0
2014-Oct-20 09:33N 35°29' E 139°49'1 0.5
2014-Oct-20 08:22N 35°29' E 139°50'0 0.1
2014-Oct-20 07:31N 35°29' E 139°50'0 0.0
2014-Oct-20 06:31N 35°29' E 139°50'0 0.0
2014-Oct-20 05:23N 35°29' E 139°50'9 9.9
2014-Oct-20 04:27N 35°36' E 139°58'5 0.5
2014-Oct-19 18:20N 35°41' E 139°59'0 0.0
2014-Oct-19 17:23N 35°41' E 139°59'0 0.0
2014-Oct-19 14:26N 35°41' E 139°59'0 0.0
2014-Oct-19 13:14N 35°41' E 139°59'5 0.5
2014-Oct-19 03:26N 35°36' E 139°58'2 2.2
2014-Oct-19 02:31N 35°36' E 139°55'4 3.3
2014-Oct-19 01:25N 35°38' E 139°58'3 0.7
2014-Oct-18 21:33N 35°36' E 139°56'1 0.2
2014-Oct-18 16:29N 35°36' E 139°55'0 0.0
2014-Oct-18 15:29N 35°36' E 139°55'0 0.0
2014-Oct-18 14:26N 35°36' E 139°55'0 0.0
2014-Oct-18 13:29N 35°36' E 139°55'0 0.0
2014-Oct-18 12:29N 35°36' E 139°55'0 0.0
2014-Oct-18 11:29N 35°36' E 139°55'0 0.0
2014-Oct-18 10:32N 35°36' E 139°55'7 7.1
2014-Oct-18 09:33N 35°31' E 139°49'4 3.4
2014-Oct-18 08:31N 35°30' E 139°45'0 0.0
2014-Oct-18 07:28N 35°30' E 139°45'0 0.0
2014-Oct-18 06:31N 35°30' E 139°45'0 0.0
2014-Oct-18 05:31N 35°30' E 139°45'4 3.7
2014-Oct-18 04:33N 35°27' E 139°43'4 3.6
2014-Oct-18 03:33N 35°28' E 139°47'8 7.8
2014-Oct-18 02:33N 35°33' E 139°54'4 0.8
2014-Oct-17 21:18N 35°37' E 139°57'2 2.1
2014-Oct-17 20:20N 35°35' E 139°55'0 0.0
2014-Oct-17 19:20N 35°35' E 139°55'0 0.0
2014-Oct-17 16:14N 35°35' E 139°55'0 0.0
2014-Oct-17 12:14N 35°35' E 139°55'0 0.0
2014-Oct-17 11:04N 35°35' E 139°55'0 0.1
2014-Oct-17 10:32N 35°35' E 139°55'7 1.6
2014-Oct-17 06:27N 35°30' E 140°01'6 1.6
2014-Oct-17 02:33N 35°34' E 139°55'5 0.9
2014-Oct-16 21:25N 35°38' E 139°59'4 0.5
2014-Oct-16 14:31N 35°36' E 139°55'0 0.1
2014-Oct-16 13:31N 35°36' E 139°55'0 0.0
2014-Oct-16 12:13N 35°36' E 139°55'0 0.0
2014-Oct-16 11:31N 35°36' E 139°55'0 0.0
2014-Oct-16 10:22N 35°36' E 139°55'3 4.2
2014-Oct-16 09:33N 35°33' E 139°52'5 4.8
2014-Oct-16 08:25N 35°32' E 139°46'0 0.0
2014-Oct-16 07:25N 35°32' E 139°46'0 0.0
2014-Oct-16 06:31N 35°32' E 139°46'0 0.0
2014-Oct-16 05:31N 35°32' E 139°46'0 0.0
2014-Oct-16 04:31N 35°32' E 139°46'5 4.8
2014-Oct-16 03:33N 35°28' E 139°42'7 6.8
2014-Oct-16 02:33N 35°29' E 139°50'  
Track history (hours):
 
Tides and Currents Weather Stations Pressure Air Temp Water Temp Dewpoint Dewpoint Depression Visibility Wind Speed Wind Dir Waves Ship Positions

Shokyu Maru

Last reported at 2014-Oct-25 09:23 UTC. Time now 2014-Oct-25 10:21 UTC.
Position N 35°36' E 139°55'.

Length 91 m; draft 3.9 m.

Type: Tanker. MMSI: 431000253.

Date/timePositionNaut miles runAvg speedWind from/ knotsBaromVisibWave heightAir tempDewpointWater temp
2014-Oct-25 09:23N 35°36' E 139°55'4 5.0
2014-Oct-25 08:29N 35°33' E 139°59'3 3.5
2014-Oct-25 07:33N 35°31' E 140°03'0 0.0
2014-Oct-25 04:03N 35°31' E 140°03'0 0.1
2014-Oct-25 03:30N 35°31' E 140°03'7 7.2
2014-Oct-25 02:33N 35°34' E 139°55'5 0.9
2014-Oct-24 21:28N 35°38' E 139°59'3 3.7
2014-Oct-24 20:32N 35°36' E 139°55'0 0.0
2014-Oct-24 19:23N 35°36' E 139°55'0 0.0
2014-Oct-24 18:32N 35°36' E 139°55'0 0.0
2014-Oct-24 17:32N 35°36' E 139°55'0 0.0
2014-Oct-24 14:24N 35°36' E 139°55'7 8.6
2014-Oct-24 13:33N 35°31' E 139°49'3 2.6
2014-Oct-24 12:32N 35°32' E 139°46'0 0.0
2014-Oct-24 11:32N 35°32' E 139°46'0 0.0
2014-Oct-24 10:32N 35°32' E 139°46'0 0.0
2014-Oct-24 09:26N 35°32' E 139°46'0 0.0
2014-Oct-24 08:32N 35°32' E 139°46'5 4.8
2014-Oct-24 07:34N 35°27' E 139°44'5 4.6
2014-Oct-24 06:33N 35°29' E 139°49'0 0.0
2014-Oct-24 05:27N 35°29' E 139°49'0 0.0
2014-Oct-24 04:33N 35°29' E 139°49'0 0.0
2014-Oct-24 03:33N 35°29' E 139°49'6 6.1
2014-Oct-24 02:31N 35°34' E 139°54'5 1.1
2014-Oct-23 21:24N 35°38' E 139°58'4 3.1
2014-Oct-23 20:12N 35°35' E 139°55'0 0.0
2014-Oct-23 18:06N 35°35' E 139°55'0 0.0
2014-Oct-23 17:30N 35°35' E 139°55'0 0.0
2014-Oct-23 16:33N 35°35' E 139°55'0 0.0
2014-Oct-23 15:24N 35°35' E 139°55'5 1.1
2014-Oct-23 10:28N 35°32' E 139°60'1 0.2
2014-Oct-23 06:28N 35°31' E 139°59'4 3.7
2014-Oct-23 05:26N 35°34' E 139°55'1 1.3
2014-Oct-23 04:30N 35°35' E 139°55'4 0.8
2014-Oct-22 23:24N 35°38' E 139°59'4 2.1
2014-Oct-22 21:27N 35°35' E 139°54'0 0.0
2014-Oct-22 20:33N 35°35' E 139°54'0 0.0
2014-Oct-22 18:26N 35°35' E 139°54'0 0.0
2014-Oct-22 15:33N 35°35' E 139°54'0 0.0
2014-Oct-22 14:27N 35°35' E 139°54'0 0.0
2014-Oct-22 11:18N 35°35' E 139°54'1 1.0
2014-Oct-22 10:32N 35°35' E 139°54'7 7.5
2014-Oct-22 09:33N 35°31' E 139°46'0 0.1
2014-Oct-22 08:11N 35°31' E 139°46'0 0.0
2014-Oct-22 07:29N 35°31' E 139°46'0 0.0
2014-Oct-22 06:32N 35°31' E 139°46'0 0.0
2014-Oct-22 05:23N 35°31' E 139°46'1 1.4
2014-Oct-22 04:33N 35°30' E 139°45'3 3.0
2014-Oct-22 03:33N 35°28' E 139°47'1210.6
2014-Oct-22 02:28N 35°36' E 139°57'2 0.4
2014-Oct-21 21:29N 35°37' E 139°58'3 2.3
2014-Oct-21 20:09N 35°36' E 139°55'0 0.1
2014-Oct-21 19:30N 35°36' E 139°55'0 0.1
2014-Oct-21 18:33N 35°36' E 139°55'0 0.0
2014-Oct-21 16:21N 35°36' E 139°55'2 0.6
2014-Oct-21 12:33N 35°34' E 139°57'4 0.9
2014-Oct-21 08:29N 35°31' E 140°00'5 0.9
2014-Oct-21 02:32N 35°35' E 139°55'4 0.8
2014-Oct-20 21:23N 35°38' E 139°59'3 0.9
2014-Oct-20 17:33N 35°36' E 139°55'9 8.8
2014-Oct-20 16:33N 35°31' E 139°46'0 0.1
2014-Oct-20 15:33N 35°31' E 139°46'0 0.0
2014-Oct-20 14:33N 35°31' E 139°46'0 0.0
2014-Oct-20 13:33N 35°31' E 139°46'0 0.0
2014-Oct-20 12:33N 35°31' E 139°46'0 0.0
2014-Oct-20 11:33N 35°31' E 139°46'1 1.1
2014-Oct-20 10:33N 35°30' E 139°45'3 3.0
2014-Oct-20 09:33N 35°29' E 139°49'1 0.5
2014-Oct-20 08:22N 35°29' E 139°50'0 0.1
2014-Oct-20 07:31N 35°29' E 139°50'0 0.0
2014-Oct-20 06:31N 35°29' E 139°50'0 0.0
2014-Oct-20 05:23N 35°29' E 139°50'9 9.9
2014-Oct-20 04:27N 35°36' E 139°58'5 0.5
2014-Oct-19 18:20N 35°41' E 139°59'0 0.0
2014-Oct-19 17:23N 35°41' E 139°59'0 0.0
2014-Oct-19 14:26N 35°41' E 139°59'0 0.0
2014-Oct-19 13:14N 35°41' E 139°59'5 0.5
2014-Oct-19 03:26N 35°36' E 139°58'2 2.2
2014-Oct-19 02:31N 35°36' E 139°55'4 3.3
2014-Oct-19 01:25N 35°38' E 139°58'3 0.7
2014-Oct-18 21:33N 35°36' E 139°56'1 0.2
2014-Oct-18 16:29N 35°36' E 139°55'0 0.0
2014-Oct-18 15:29N 35°36' E 139°55'0 0.0
2014-Oct-18 14:26N 35°36' E 139°55'0 0.0
2014-Oct-18 13:29N 35°36' E 139°55'0 0.0
2014-Oct-18 12:29N 35°36' E 139°55'0 0.0
2014-Oct-18 11:29N 35°36' E 139°55'0 0.0
2014-Oct-18 10:32N 35°36' E 139°55'7 7.1
2014-Oct-18 09:33N 35°31' E 139°49'4 3.4
2014-Oct-18 08:31N 35°30' E 139°45'0 0.0
2014-Oct-18 07:28N 35°30' E 139°45'0 0.0
2014-Oct-18 06:31N 35°30' E 139°45'0 0.0
2014-Oct-18 05:31N 35°30' E 139°45'4 3.7
2014-Oct-18 04:33N 35°27' E 139°43'4 3.6
2014-Oct-18 03:33N 35°28' E 139°47'8 7.8
2014-Oct-18 02:33N 35°33' E 139°54'4 0.8
2014-Oct-17 21:18N 35°37' E 139°57'2 2.1
2014-Oct-17 20:20N 35°35' E 139°55'0 0.0
2014-Oct-17 19:20N 35°35' E 139°55'0 0.0
2014-Oct-17 16:14N 35°35' E 139°55'0 0.0
2014-Oct-17 12:14N 35°35' E 139°55'0 0.0
2014-Oct-17 11:04N 35°35' E 139°55'0 0.1
2014-Oct-17 10:32N 35°35' E 139°55'7 1.6
2014-Oct-17 06:27N 35°30' E 140°01'6 1.6
2014-Oct-17 02:33N 35°34' E 139°55'5 0.9
2014-Oct-16 21:25N 35°38' E 139°59'4 0.5
2014-Oct-16 14:31N 35°36' E 139°55'0 0.1
2014-Oct-16 13:31N 35°36' E 139°55'0 0.0
2014-Oct-16 12:13N 35°36' E 139°55'0 0.0
2014-Oct-16 11:31N 35°36' E 139°55'0 0.0
2014-Oct-16 10:22N 35°36' E 139°55'3 4.2
2014-Oct-16 09:33N 35°33' E 139°52'5 4.8
2014-Oct-16 08:25N 35°32' E 139°46'0 0.0
2014-Oct-16 07:25N 35°32' E 139°46'0 0.0
2014-Oct-16 06:31N 35°32' E 139°46'0 0.0
2014-Oct-16 05:31N 35°32' E 139°46'0 0.0
2014-Oct-16 04:31N 35°32' E 139°46'5 4.8
2014-Oct-16 03:33N 35°28' E 139°42'7 6.8
2014-Oct-16 02:33N 35°29' E 139°50'  

Dump ship's entire track history